Location: 22
(39.7117°N, 89.5929°W)
Time: 08:34:42
(UTC-05:00)

Transit 2A - Pass Details

Date: 04 August 2024
Orbit: 590 x 961 km, 66.7° (Epoch: 13 September)

Event Time Altitude Azimuth Distance (km) Brightness Sun altitude
Rises 12:28:29 0° 341° (NNW) 3,625 9.2 65.9°
Reaches altitude 10° 12:32:27 10° 5° (N) 2,699 8.7 66.2°
Maximum altitude 12:35:46 14° 37° (NE) 2,389 8.6 66.4°
Drops below altitude 10° 12:39:04 10° 69° (ENE) 2,686 8.9 66.6°
Sets 12:42:59 0° 93° (E) 3,596 9.6 66.8°
